Regional Weather Roundup
Issued by NWS Columbia, SC

Home | Current Version | Previous Version | Text Only | Print | Product List | Glossary On
Versions: 1 2 3 4 5 6 7 8 9 10 11 12 13 14 15 16 17 18 19 20 21 22 23 24 25 26 27 28 29 30 31 32 33 34 35 36 37 38 39 40 41 42 43 44 45 46 47 48 49 50
000
ASUS42 KCAE 262110
RWRCAE
REGIONAL WEATHER ROUNDUP
NATIONAL WEATHER SERVICE COLUMBIA SC
500 PM EDT SUN APR 26 2015

NOTE: "FAIR" INDICATES FEW OR NO CLOUDS BELOW 12,000 FEET WITH NO
SIGNIFICANT WEATHER AND/OR OBSTRUCTIONS TO VISIBILITY.

NOT ALL STATIONS ARE QUALITY CONTROLLED BY THE NATIONAL
WEATHER SERVICE. USE DATA WITH CAUTION...ESPECIALLY
DEWPOINT OBSERVATIONS.

SCZ001>056-GAZ040-063>065-077-262200-
...UPSTATE SOUTH CAROLINA...

CITY           SKY/WX    TMP DP  RH WIND       PRES   REMARKS
ANDERSON       SUNNY     81  51  35 NW18G24   29.60F
LIBERTY        CLOUDY    79  52  38 W10G17    29.60S
SPARTANBURG    SUNNY     64  54  68 NE9       29.64F
CLEMSON        SUNNY     82  50  32 W17G23    29.61F
GREENVILLE     PTSUNNY   69  55  60 NE13      29.64R
GREENWOOD      MOSUNNY   77  62  59 MISG      29.61S
GREER          MOSUNNY   68  56  65 NE10      29.63S
ROCK HILL      PTSUNNY   58  49  72 N12G18    29.69R
CHESTER        MOCLDY    61  57  88 NE9       29.67S
LAURENS        PTCLDY    68  63  83 NE12G17   29.63S


...CENTRAL SOUTH CAROLINA...

CITY           SKY/WX    TMP DP  RH WIND       PRES   REMARKS
COLUMBIA APT   PTSUNNY   73  59  61 NE14      29.60R
COLUMBIA OWENS LGT RAIN  71  60  68 VRB5      29.62R
DARLINGTON     CLOUDY    59  52  77 NE10      29.68R
FLORENCE       CLOUDY    62  53  72 NE8       29.65R
MCENTIRE ANGB  LGT RAIN  69  60  73 NE10G16   29.61R
ORANGEBURG     MOSUNNY   85  55  35 W17G24    29.57F
SUMTER SHAW    MOSUNNY   68  57  67 N16       29.62R
AIKEN          FAIR      81  52  36 W12G26    29.62S
BARNWELL       FAIR      86  57  37 W9G26     29.59F
MANNING        FAIR      73  48  40 NE13      29.59R
CAMDEN         CLOUDY    61  52  72 N12       29.66R
LANCASTER      CLOUDY    55  55 100 NE6       29.69R
WINNSBORO      CLOUDY    61  54  77 NE14      29.65R


...EASTERN AND COASTAL SOUTH CAROLINA...

CITY           SKY/WX    TMP DP  RH WIND       PRES   REMARKS
MYRTLE BEACH   PTSUNNY   70  55  60 NE9       29.65R
N MYRTLE BCH   PTSUNNY   65  55  70 N7        29.65R
CONWAY         CLOUDY    64  55  72 N7        29.65R
MARION         CLOUDY    63  52  67 N8        29.65S
HARTSVILLE     MOCLDY    61  52  72 N10       29.68R
FLORENCE       CLOUDY    62  53  72 NE8       29.65R
DARLINGTON     CLOUDY    59  52  77 NE10      29.68R
CHARLESTON APT MOSUNNY   87  56  34 W13       29.57F
MOUNT PLEASANT FAIR      86  55  35 MISG      29.57S
WALTERBORO     PTCLDY    86  55  35 W15G21    29.59S
BEAUFORT       MOSUNNY   87  56  34 W15G21    29.59F


...EASTERN GEORGIA...

CITY           SKY/WX    TMP DP  RH WIND       PRES   REMARKS
AUGUSTA BUSH F MOSUNNY   82  58  43 W10       29.59S
AUGUSTA DANIEL MOSUNNY   84  60  44 SW12G21   29.61S
THOMSON        PTSUNNY   81  66  60 CALM      29.65S
WASHINGTON     FAIR      84  59  42 W8G26     29.61S
CLAXTON        FAIR      86  55  35 W12G22    29.63R
SYLVANIA       PTCLDY    85  62  46 W9G20     29.62S
STATESBORO       N/A     86  59  39 W15G22    29.62S
SAVANNAH       MOSUNNY   87  55  33 W14G21    29.61F


...SOUTHERN NORTH CAROLINA...

CITY           SKY/WX    TMP DP  RH WIND       PRES   REMARKS
CHARLOTTE      CLOUDY    56  46  69 N12G17    29.70S
MONROE         CLOUDY    56  48  74 NE13      29.69R
WADESBORO      CLOUDY    57  48  73 N9        29.70S
ROCKINGHAM     CLOUDY    54  48  81 N9        29.69R
RUTHERFORDTON  CLOUDY    57  52  83 E6        29.69S
ASHEVILLE      LGT RAIN  63  52  67 N20G28    29.68S

$$


USA.gov is the U.S. government's official web portal to all federal, state and local government web resources and services.